Location: Unspecified
(0.0000°N, 0.0000°E)
Time: 01:49:16
(UTC+00:00)

Hubble Space Telescope - Pass Details

Date: 24 May 2017
Orbit: 538 x 542 km, 28.5° (Epoch: 22 June)

Event Time Altitude Azimuth Distance (km) Brightness Sun altitude
Rises 20:24:42 0° 276° (W) 2,674 5.3 -34.2°
Reaches altitude 10° 20:28:06 10° 305° (NW) 1,782 4.2 -34.9°
Enters shadow 20:29:09 12° 320° (NW) 1,646 3.9 -35.2°
